Location: De Har
(53.3413°N, 6.6858°E)
Time: 20:45:36
(UTC+00:00)

Cosmos 1331 Rocket - Pass Details

Date: 22 April 2026
Orbit: 746 x 772 km, 74.0° (Epoch: 21 May)

Event Time Altitude Azimuth Distance (km) Brightness Sun altitude
Exits shadow 00:06:57 60° 235° (SW) 886 4.0 -24.1°
Maximum altitude 00:07:51 75° 298° (WNW) 802 4.0 -24.1°
Drops below altitude 10° 00:13:08 10° 24° (NNE) 2,317 7.5 -23.9°
Sets 00:15:31 0° 26° (NNE) 3,244 8.5 -23.9°
